Regional Weather Roundup
Issued by NWS

Home | Current Version | Previous Version | Graphics & Text | Print | Product List | Glossary On
Versions: 1 2 3 4 5 6 7 8 9 10 11 12 13 14 15 16 17 18 19 20 21 22 23 24 25 26 27 28 29 30 31 32 33 34 35 36 37 38 39 40 41 42 43 44 45 46 47 48 49 50
046
ASUS44 KLIX 172008
RWRLA
LOUISIANA WEATHER ROUNDUP
NATIONAL WEATHER SERVICE NEW ORLEANS LA
300 PM CDT FRI APR 17 2015

NOTE: "FAIR" INDICATES FEW OR NO CLOUDS BELOW 12,000 FEET WITH NO
      SIGNIFICANT WEATHER AND/OR OBSTRUCTIONS TO VISIBILITY.
      SKY/WX - SKY CONDITION AND SIGNIFICANT WEATHER.
      TMP - AIR TEMPERATURE.    DP   - DEWPOINT TEMPERATURE.
      RH  - RELATIVE HUMIDITY.  PRES - PRESSURE.
      HX  - HEAT INDEX.         WCI  - WIND CHILL INDEX.

*  THESE STATIONS ARE NOT NWS OR FAA STATIONS AND ARE NOT UNDER
   NWS QUALITY CONTROL.

LAZ040-048-061>063-065-066-069-172100-
SOUTHEAST LOUISIANA

CITY           SKY/WX    TMP DP  RH WIND       PRES   REMARKS
N.O. AUDUBON   NOT AVBL
N.O. INTL ARPT PTSUNNY   81  69  67 W9        29.93F
N.O. LAKEFRONT MOSUNNY   81  71  71 NW7       29.93F
SLIDELL        PTSUNNY   80  70  71 VRB6      29.92F
BATON ROUGE    PTSUNNY   82  67  60 VRB5      29.94F
BOOTHVILLE     MOSUNNY   79  72  79 SW9       29.93F
BELLE CHASSE   PTSUNNY   79  68  69 W9G17     29.93F
BOGALUSA*        N/A     85  68  56 SW5       29.94F
GALLIANO*      CLOUDY    81  69  66 MISG      29.94F
NEW ROADS*     FAIR      80  68  65 CALM      29.94F
GONZALES*      MOCLDY    81  69  65 CALM      29.93F
HAMMOND*       MOSUNNY   84  64  51 W3        29.95F
HOUMA*         CLOUDY    79  72  78 NW9       29.94F
PORT FOURCHON* CLEAR     79  70  73 W8        29.97F

$$

LAZ041-044-053-054-172100-
SOUTHWEST LOUISIANA

CITY           SKY/WX    TMP DP  RH WIND       PRES   REMARKS
LAKE CHARLES   CLOUDY    81  68  64 NE7       29.93F
LAFAYETTE      MOSUNNY   80  68  66 S5        29.94F
PATTERSON      CLOUDY    75  68  78 N3        29.96F
SALT POINT       N/A     77  68  73 CALM      29.93F
NEW IBERIA     MOSUNNY   81  71  71 S7        29.95F
CHENAULT AIRPK NOT AVBL

$$

LAZ027-028-172100-
CENTRAL LOUISIANA

CITY           SKY/WX    TMP DP  RH WIND       PRES   REMARKS
FORT POLK      CLOUDY    79  63  56 NE2       29.94F
ALEXANDRIA INT PTSUNNY   79  65  62 VRB5      29.94F
ALEXANDRIA     SUNNY     80  65  59 W5        29.96F

$$

LAZ001-002-172100-
NORTHWEST LOUISIANA

CITY           SKY/WX    TMP DP  RH WIND       PRES   REMARKS
SHREVEPORT     PTSUNNY   79  65  62 NE7       29.95F
BARKSDALE AFB  MOSUNNY   78  63  59 VRB3      29.96F
DTN SHREVEPORT MOSUNNY   77  62  59 VRB6      29.96F

$$

LAZ014-016-172100-
NORTHEAST LOUISIANA

CITY           SKY/WX    TMP DP  RH WIND       PRES   REMARKS
MONROE         MOSUNNY   83  63  50 CALM      29.96F
TALLULAH       CLOUDY    78  65  63 VRB3      29.96F

$$




USA.gov is the U.S. government's official web portal to all federal, state and local government web resources and services.